Погода в Новотроицке

Россия / Забайкальский край     51°59′09″N   114°05′30″E
темп.,
°C
ветер,
м/с
пор.,
м/с
влажн.,
%
обл.,
%
осадки,
мм/ч
давл.,
гПа
погр.,
м
23 января, сб
сб2300:00−22юв119677 0.0 102120
03:00−20юв119787 0.0 101920
06:00−21ю119690 0.0 101820
09:00−20ююз119594 0.0 101820
12:00−14зюз1277100 0.0 1016121
15:00−10зюз127056 0.0 1017252
18:00−13з1185100 0.0 101821
21:00−12юз128698 0.0 102021
24 января, вс
вс2400:00−12з1188100 0.0 102321
03:00−12сз1289100 0.0 102429
06:00−13зсз1193100 0.0 102520
09:00−13сз1192100 0.0 102620
12:00−11ссв1181100 0.0 1029153
15:00−9всв1288100 0.4 1027313
18:00−12св2295100 0.3 103039
21:00−13св2695100 1.2 1028333
25 января, пн
пн2500:00−15всв21095100 0.4 1031439
03:00−16всв3994100 0.8 1029497
06:00−17всв3993100 0.4 1027497
09:00−19св41095100 2.8 1022684
12:00−18всв4893100 1.5 1024598
15:00−18св4792100 2.8 1018915
18:00−19с2697100 0.7 1018580
21:00−21ссз2698100 1.3 1021483
26 января, вт
вт2600:00−21сз2399100 0.3 1022118
03:00−23сз2497100 0.4 1022154
06:00−24зсз2997100 0.1 1022391
09:00−24сз31095100 0.1 1023621
12:00−22ссз51081100 0.1 10221152
15:00−20ссз51076100 0.1 10211410
18:00−19сз4995100 0.3 1022869
21:00−21сз4996100 0.7 1023531
27 января, ср
ср2700:00−22зсз51189100 0.1 1025517
03:00−24зсз21095100 0.1 1025396
06:00−25зсз2996100 0.0 1026410
09:00−27зсз2496100 0.0 1028164
12:00−24зсз2787100 0.0 1028493
15:00−22сз4785100 0.1 1031644
18:00−24зсз3891100 0.1 1027505
21:00−25зсз41090100 0.1 1030496